| time (UTC) | temp F | wind direction | speed MPH | gust MPH | rain 1hr in | rain 24hr in | rain mn in | humidity % | barometer mb |
| 20260508064542 | 61 | 318 | 11.0 | 25.0 | 0.07 | 0.18 | 0.18 | 93 | 1005.4 |
| 20260508064004 | 61 | 13 | 14.0 | 29.0 | 0.07 | 0.17 | 0.17 | 93 | 1005.1 |
| 20260508063507 | 61 | 359 | 19.0 | 29.0 | 0.07 | 0.16 | 0.16 | 92 | 1004.9 |
| 20260508063026 | 61 | 9 | 16.0 | 35.0 | 0.09 | 0.15 | 0.15 | 92 | 1005.1 |
| 20260508062511 | 61 | 337 | 18.0 | 35.0 | 0.15 | 0.15 | 0.15 | 92 | 1004.8 |
| 20260508062010 | 61 | 330 | 16.0 | 27.0 | 0.15 | 0.15 | 0.15 | 93 | 1004.6 |
| 20260508061524 | 61 | 323 | 15.0 | 29.0 | 0.15 | 0.15 | 0.15 | 93 | 1004.8 |
| 20260508061011 | 61 | 325 | 17.0 | 29.0 | 0.15 | 0.15 | 0.15 | 93 | 1004.7 |
| 20260508060508 | 60 | 316 | 17.0 | 28.0 | 0.15 | 0.15 | 0.15 | 93 | 1004.5 |
| 20260508060009 | 60 | 23 | 15.0 | 28.0 | 0.14 | 0.14 | 0.14 | 93 | 1004.6 |
| 20260508055502 | 60 | 342 | 17.0 | 27.0 | 0.14 | 0.14 | 0.14 | 92 | 1004.5 |
| 20260508055002 | 60 | 339 | 16.0 | 27.0 | 0.12 | 0.12 | 0.12 | 92 | 1004.6 |
| 20260508054514 | 61 | 357 | 16.0 | 27.0 | 0.11 | 0.11 | 0.11 | 92 | 1004.4 |
| 20260508054004 | 61 | 354 | 17.0 | 29.0 | 0.10 | 0.10 | 0.10 | 92 | 1004.6 |
| 20260508053505 | 62 | 317 | 16.0 | 37.0 | 0.09 | 0.09 | 0.09 | 91 | 1005.1 |
| 20260508053016 | 63 | 333 | 24.0 | 37.0 | 0.06 | 0.06 | 0.06 | 88 | 1005.7 |
| 20260508052504 | 64 | 328 | 16.0 | 22.0 | 0.00 | 0.00 | 0.00 | 86 | 1006.4 |
| 20260508052006 | 64 | 319 | 14.0 | 23.0 | 0.00 | 0.00 | 0.00 | 87 | 1005.3 |
| 20260508051525 | 63 | 333 | 14.0 | 23.0 | 0.00 | 0.00 | 0.00 | 87 | 1005.0 |
| 20260508051006 | 63 | 24 | 13.0 | 24.0 | 0.00 | 0.00 | 0.00 | 86 | 1004.9 |
| 20260508050507 | 63 | 321 | 15.0 | 24.0 | 0.00 | 0.00 | 0.00 | 86 | 1004.8 |
| 20260508045507 | 63 | 343 | 12.0 | 19.0 | 0.00 | 0.00 | 0.00 | 86 | 1004.7 |
| 20260508045007 | 64 | 319 | 11.0 | 20.0 | 0.00 | 0.00 | 0.00 | 86 | 1004.6 |
| 20260508044508 | 64 | 281 | 11.0 | 21.0 | 0.00 | 0.00 | 0.00 | 85 | 1004.8 |
| 20260508044003 | 64 | 16 | 13.0 | 21.0 | 0.00 | 0.00 | 0.00 | 84 | 1005.1 |
| 20260508043502 | 64 | 354 | 13.0 | 21.0 | 0.00 | 0.00 | 0.00 | 83 | 1005.2 |
| 20260508043014 | 64 | 303 | 13.0 | 22.0 | 0.00 | 0.00 | 0.00 | 83 | 1005.1 |
| 20260508042508 | 65 | 302 | 14.0 | 24.0 | 0.00 | 0.00 | 0.00 | 83 | 1005.1 |
| 20260508042005 | 65 | 332 | 14.0 | 24.0 | 0.00 | 0.00 | 0.00 | 82 | 1005.3 |
| 20260508041516 | 65 | 311 | 16.0 | 23.0 | 0.00 | 0.00 | 0.00 | 81 | 1005.3 |
| 20260508041007 | 65 | 318 | 12.0 | 20.0 | 0.00 | 0.00 | 0.00 | 81 | 1005.4 |
| 20260508040506 | 66 | 354 | 12.0 | 19.0 | 0.00 | 0.00 | 0.00 | 79 | 1005.5 |
| 20260508040026 | 67 | 321 | 9.0 | 20.0 | 0.00 | 0.00 | 0.00 | 76 | 1005.8 |
| 20260508035508 | 68 | 303 | 13.0 | 20.0 | 0.00 | 0.00 | 0.00 | 73 | 1006.1 |
| 20260508035007 | 68 | 335 | 7.0 | 17.0 | 0.00 | 0.00 | 0.00 | 72 | 1005.7 |
| 20260508034528 | 68 | 326 | 9.0 | 17.0 | 0.00 | 0.00 | 0.00 | 72 | 1005.9 |
| 20260508034009 | 68 | 321 | 6.0 | 13.0 | 0.00 | 0.00 | 0.00 | 70 | 1005.8 |
| 20260508033507 | 69 | 304 | 7.0 | 15.0 | 0.00 | 0.00 | 0.00 | 69 | 1005.8 |
| 20260508033012 | 70 | 344 | 9.0 | 15.0 | 0.00 | 0.00 | 0.00 | 67 | 1005.8 |
| 20260508032504 | 72 | 307 | 5.0 | 9.0 | 0.00 | 0.00 | 0.00 | 66 | 1005.9 |
| 20260508032005 | 72 | 358 | 3.0 | 13.0 | 0.00 | 0.00 | 0.00 | 66 | 1005.8 |
| 20260508031514 | 73 | 55 | 6.0 | 13.0 | 0.00 | 0.00 | 0.00 | 66 | 1006.0 |
| 20260508031007 | 73 | 333 | 6.0 | 25.0 | 0.00 | 0.00 | 0.00 | 65 | 1005.8 |
| 20260508030513 | 73 | 300 | 10.0 | 25.0 | 0.00 | 0.00 | 0.00 | 65 | 1005.6 |
| 20260508030018 | 73 | 321 | 13.0 | 22.0 | 0.00 | 0.00 | 0.00 | 65 | 1005.1 |
| 20260508025507 | 73 | 338 | 11.0 | 27.0 | 0.00 | 0.00 | 0.00 | 65 | 1005.0 |
| 20260508025006 | 73 | 318 | 12.0 | 27.0 | 0.00 | 0.00 | 0.00 | 65 | 1004.9 |
| 20260508024524 | 73 | 317 | 15.0 | 25.0 | 0.00 | 0.00 | 0.00 | 64 | 1004.8 |
| 20260508024007 | 73 | 325 | 11.0 | 28.0 | 0.00 | 0.00 | 0.00 | 64 | 1004.7 |
| 20260508023508 | 74 | 327 | 17.0 | 28.0 | 0.00 | 0.00 | 0.00 | 63 | 1004.6 |
| 20260508023026 | 74 | 8 | 17.0 | 28.0 | 0.00 | 0.00 | 0.00 | 63 | 1003.9 |
| 20260508022506 | 73 | 2 | 14.0 | 33.0 | 0.00 | 0.00 | 0.00 | 63 | 1003.6 |
| 20260508022012 | 73 | 336 | 19.0 | 33.0 | 0.00 | 0.00 | 0.00 | 63 | 1003.7 |
| 20260508021514 | 73 | 322 | 17.0 | 28.0 | 0.00 | 0.00 | 0.00 | 63 | 1004.1 |
| 20260508021008 | 74 | 349 | 14.0 | 29.0 | 0.00 | 0.00 | 0.00 | 63 | 1004.0 |
| 20260508020503 | 74 | 10 | 12.0 | 35.0 | 0.00 | 0.00 | 0.00 | 63 | 1004.1 |
| 20260508020016 | 74 | 343 | 14.0 | 35.0 | 0.00 | 0.00 | 0.00 | 63 | 1004.4 |
| 20260508015503 | 74 | 335 | 15.0 | 28.0 | 0.00 | 0.00 | 0.00 | 62 | 1004.5 |
| 20260508015010 | 74 | 330 | 14.0 | 28.0 | 0.00 | 0.00 | 0.00 | 62 | 1004.4 |
| 20260508014520 | 74 | 332 | 15.0 | 25.0 | 0.00 | 0.00 | 0.00 | 62 | 1004.7 |
| 20260508014010 | 74 | 302 | 19.0 | 30.0 | 0.00 | 0.00 | 0.00 | 62 | 1004.7 |
| 20260508013507 | 74 | 313 | 14.0 | 30.0 | 0.00 | 0.00 | 0.00 | 62 | 1004.9 |
| 20260508013026 | 74 | 60 | 12.0 | 30.0 | 0.00 | 0.00 | 0.00 | 62 | 1004.8 |
| 20260508012513 | 74 | 344 | 11.0 | 29.0 | 0.00 | 0.00 | 0.00 | 62 | 1004.8 |
| 20260508012012 | 74 | 286 | 15.0 | 29.0 | 0.00 | 0.00 | 0.00 | 62 | 1005.0 |
| 20260508011535 | 74 | 24 | 11.0 | 28.0 | 0.00 | 0.00 | 0.00 | 62 | 1005.1 |
| 20260508011009 | 74 | 316 | 13.0 | 28.0 | 0.00 | 0.00 | 0.00 | 62 | 1005.0 |
| 20260508010508 | 73 | 322 | 8.0 | 21.0 | 0.00 | 0.00 | 0.00 | 63 | 1005.2 |
| 20260508010024 | 73 | 307 | 8.0 | 20.0 | 0.00 | 0.00 | 0.00 | 63 | 1005.4 |
| 20260508005503 | 74 | 345 | 9.0 | 33.0 | 0.00 | 0.00 | 0.00 | 62 | 1005.4 |
| 20260508005004 | 74 | 25 | 8.0 | 33.0 | 0.00 | 0.00 | 0.00 | 62 | 1005.4 |
| 20260508004531 | 73 | 341 | 11.0 | 24.0 | 0.00 | 0.00 | 0.00 | 62 | 1005.4 |
| 20260508004007 | 73 | 325 | 11.0 | 21.0 | 0.00 | 0.00 | 0.00 | 62 | 1005.4 |
| 20260508003507 | 73 | 337 | 11.0 | 17.0 | 0.00 | 0.00 | 0.00 | 63 | 1005.6 |
| 20260508003022 | 73 | 304 | 10.0 | 19.0 | 0.00 | 0.00 | 0.00 | 63 | 1005.4 |
| 20260508002507 | 73 | 356 | 10.0 | 19.0 | 0.00 | 0.00 | 0.00 | 63 | 1005.4 |
| 20260508002006 | 73 | 321 | 9.0 | 17.0 | 0.00 | 0.00 | 0.00 | 64 | 1005.5 |
| 20260508001529 | 73 | 6 | 7.0 | 16.0 | 0.00 | 0.00 | 0.00 | 64 | 1005.6 |
| 20260508001007 | 73 | 20 | 8.0 | 22.0 | 0.00 | 0.00 | 0.00 | 64 | 1005.5 |
| 20260508000511 | 73 | 294 | 10.0 | 22.0 | 0.00 | 0.00 | 0.00 | 64 | 1005.7 |
| 20260508000026 | 72 | 326 | 6.0 | 15.0 | 0.00 | 0.00 | 0.00 | 65 | 1005.7 |
| 20260507235507 | 72 | 336 | 7.0 | 15.0 | 0.00 | 0.00 | 0.00 | 65 | 1005.7 |
| 20260507235010 | 72 | 302 | 7.0 | 13.0 | 0.00 | 0.00 | 0.00 | 65 | 1005.6 |
| 20260507234523 | 72 | 11 | 5.0 | 13.0 | 0.00 | 0.00 | 0.00 | 65 | 1005.8 |
| 20260507234005 | 72 | 1 | 5.0 | 13.0 | 0.00 | 0.00 | 0.00 | 65 | 1005.9 |
| 20260507233507 | 72 | 307 | 6.0 | 13.0 | 0.00 | 0.00 | 0.00 | 65 | 1005.9 |
| 20260507233026 | 72 | 301 | 5.0 | 13.0 | 0.00 | 0.00 | 0.00 | 65 | 1006.0 |
| 20260507232507 | 72 | 321 | 7.0 | 14.0 | 0.00 | 0.00 | 0.00 | 66 | 1006.0 |
| 20260507232007 | 72 | 312 | 5.0 | 14.0 | 0.00 | 0.00 | 0.00 | 66 | 1005.9 |
| 20260507231525 | 73 | 314 | 6.0 | 12.0 | 0.00 | 0.00 | 0.00 | 65 | 1005.9 |
| 20260507231007 | 73 | 319 | 6.0 | 12.0 | 0.00 | 0.00 | 0.00 | 64 | 1005.9 |
| 20260507230507 | 73 | 327 | 5.0 | 15.0 | 0.00 | 0.00 | 0.00 | 64 | 1006.0 |
| 20260507230027 | 73 | 340 | 7.0 | 15.0 | 0.00 | 0.00 | 0.00 | 63 | 1006.0 |
| 20260507225508 | 73 | 315 | 6.0 | 12.0 | 0.00 | 0.00 | 0.00 | 63 | 1006.0 |
| 20260507225008 | 73 | 342 | 6.0 | 12.0 | 0.00 | 0.00 | 0.00 | 63 | 1006.0 |
| 20260507224526 | 74 | 314 | 7.0 | 16.0 | 0.00 | 0.00 | 0.00 | 62 | 1006.0 |
| 20260507224009 | 74 | 359 | 7.0 | 16.0 | 0.00 | 0.00 | 0.00 | 62 | 1006.0 |
| 20260507223509 | 74 | 328 | 7.0 | 12.0 | 0.00 | 0.00 | 0.00 | 62 | 1006.0 |
| 20260507223030 | 74 | 302 | 5.0 | 12.0 | 0.00 | 0.00 | 0.00 | 62 | 1006.0 |
| 20260507222507 | 74 | 328 | 5.0 | 12.0 | 0.00 | 0.00 | 0.00 | 62 | 1006.0 |
| 20260507222007 | 74 | 320 | 6.0 | 12.0 | 0.00 | 0.00 | 0.00 | 62 | 1006.1 |
| 20260507221522 | 74 | 37 | 5.0 | 11.0 | 0.00 | 0.00 | 0.00 | 61 | 1006.4 |
| 20260507221013 | 74 | 14 | 4.0 | 11.0 | 0.00 | 0.00 | 0.00 | 61 | 1006.6 |
| 20260507220517 | 74 | 321 | 4.0 | 11.0 | 0.00 | 0.00 | 0.00 | 61 | 1006.5 |
| 20260507220027 | 75 | 9 | 2.0 | 14.0 | 0.00 | 0.00 | 0.00 | 60 | 1006.6 |
| 20260507215506 | 75 | 23 | 6.0 | 14.0 | 0.00 | 0.00 | 0.00 | 60 | 1006.6 |
| 20260507215007 | 75 | 302 | 7.0 | 12.0 | 0.00 | 0.00 | 0.00 | 60 | 1006.7 |
| 20260507214529 | 75 | 314 | 5.0 | 12.0 | 0.00 | 0.00 | 0.00 | 60 | 1006.7 |
| 20260507214514 | 75 | 319 | 5.0 | 12.0 | 0.00 | 0.00 | 0.00 | 60 | 1006.7 |
| 20260507214003 | 75 | 340 | 7.0 | 13.0 | 0.00 | 0.00 | 0.00 | 59 | 1006.6 |
| 20260507213503 | 75 | 326 | 5.0 | 13.0 | 0.00 | 0.00 | 0.00 | 59 | 1006.5 |
| 20260507213015 | 75 | 4 | 6.0 | 16.0 | 0.00 | 0.00 | 0.00 | 59 | 1006.5 |
| 20260507212502 | 75 | 328 | 6.0 | 16.0 | 0.00 | 0.00 | 0.00 | 60 | 1006.5 |
| 20260507212008 | 75 | 296 | 6.0 | 17.0 | 0.00 | 0.00 | 0.00 | 60 | 1006.5 |
| 20260507211523 | 75 | 304 | 7.0 | 17.0 | 0.00 | 0.00 | 0.00 | 60 | 1006.5 |
| 20260507211006 | 75 | 20 | 8.0 | 16.0 | 0.00 | 0.00 | 0.00 | 60 | 1006.5 |
| 20260507210506 | 75 | 337 | 7.0 | 16.0 | 0.00 | 0.00 | 0.00 | 60 | 1006.2 |
| 20260507210023 | 75 | 356 | 8.0 | 16.0 | 0.00 | 0.00 | 0.00 | 61 | 1006.1 |
| 20260507205502 | 75 | 359 | 5.0 | 13.0 | 0.00 | 0.00 | 0.00 | 61 | 1006.5 |
| 20260507205003 | 75 | 328 | 7.0 | 13.0 | 0.00 | 0.00 | 0.00 | 61 | 1006.6 |
| 20260507204507 | 75 | 317 | 3.0 | 12.0 | 0.00 | 0.00 | 0.00 | 61 | 1006.7 |
| 20260507204007 | 75 | 25 | 3.0 | 13.0 | 0.00 | 0.00 | 0.00 | 61 | 1006.8 |
| 20260507203507 | 76 | 308 | 2.0 | 13.0 | 0.00 | 0.00 | 0.00 | 60 | 1006.7 |
| 20260507203013 | 76 | 4 | 5.0 | 11.0 | 0.00 | 0.00 | 0.00 | 60 | 1006.7 |
| 20260507202502 | 76 | 2 | 5.0 | 11.0 | 0.00 | 0.00 | 0.00 | 60 | 1006.7 |
| 20260507202011 | 76 | 66 | 5.0 | 16.0 | 0.00 | 0.00 | 0.00 | 60 | 1006.6 |
| 20260507201518 | 76 | 13 | 6.0 | 16.0 | 0.00 | 0.00 | 0.00 | 59 | 1006.7 |
| 20260507201007 | 76 | 34 | 5.0 | 13.0 | 0.00 | 0.00 | 0.00 | 59 | 1006.6 |
| 20260507200506 | 76 | 316 | 6.0 | 13.0 | 0.00 | 0.00 | 0.00 | 59 | 1006.7 |
| 20260507200021 | 77 | 348 | 6.0 | 12.0 | 0.00 | 0.00 | 0.00 | 58 | 1006.6 |
| 20260507195506 | 77 | 44 | 5.0 | 11.0 | 0.00 | 0.00 | 0.00 | 58 | 1006.7 |
| 20260507195007 | 77 | 324 | 4.0 | 13.0 | 0.00 | 0.00 | 0.00 | 57 | 1006.7 |
| 20260507194526 | 77 | 24 | 7.0 | 13.0 | 0.00 | 0.00 | 0.00 | 57 | 1006.8 |
| 20260507194003 | 77 | 294 | 4.0 | 18.0 | 0.00 | 0.00 | 0.00 | 58 | 1006.8 |
| 20260507193503 | 76 | 343 | 7.0 | 18.0 | 0.00 | 0.00 | 0.00 | 58 | 1006.9 |
| 20260507193017 | 76 | 313 | 5.0 | 12.0 | 0.00 | 0.00 | 0.00 | 59 | 1007.0 |
| 20260507192505 | 76 | 345 | 8.0 | 14.0 | 0.00 | 0.00 | 0.00 | 58 | 1007.0 |
| 20260507192003 | 76 | 14 | 7.0 | 16.0 | 0.00 | 0.00 | 0.00 | 58 | 1006.9 |
| 20260507191514 | 76 | 327 | 9.0 | 16.0 | 0.00 | 0.00 | 0.00 | 57 | 1007.0 |
| 20260507191002 | 76 | 323 | 5.0 | 15.0 | 0.00 | 0.00 | 0.00 | 57 | 1007.0 |
| 20260507190506 | 76 | 24 | 3.0 | 12.0 | 0.00 | 0.00 | 0.00 | 58 | 1007.1 |
| 20260507190022 | 76 | 326 | 4.0 | 11.0 | 0.00 | 0.00 | 0.00 | 57 | 1007.0 |
| 20260507185507 | 77 | 41 | 5.0 | 13.0 | 0.00 | 0.00 | 0.00 | 56 | 1006.9 |
| 20260507185006 | 77 | 302 | 3.0 | 16.0 | 0.00 | 0.00 | 0.00 | 56 | 1006.7 |
| 20260507184521 | 77 | 41 | 5.0 | 20.0 | 0.00 | 0.00 | 0.00 | 55 | 1006.7 |
| 20260507184007 | 77 | 332 | 10.0 | 20.0 | 0.00 | 0.00 | 0.00 | 55 | 1006.6 |
| 20260507183510 | 77 | 303 | 9.0 | 26.0 | 0.00 | 0.00 | 0.00 | 55 | 1006.4 |
| 20260507183023 | 77 | 312 | 14.0 | 26.0 | 0.00 | 0.00 | 0.00 | 53 | 1006.3 |
| 20260507182503 | 77 | 351 | 12.0 | 23.0 | 0.00 | 0.00 | 0.00 | 53 | 1006.1 |
| 20260507182004 | 77 | 323 | 10.0 | 23.0 | 0.00 | 0.00 | 0.00 | 54 | 1005.9 |
| 20260507181515 | 78 | 317 | 11.0 | 21.0 | 0.00 | 0.00 | 0.00 | 53 | 1005.9 |
| 20260507181004 | 78 | 358 | 10.0 | 25.0 | 0.00 | 0.00 | 0.00 | 53 | 1006.0 |
| 20260507180504 | 78 | 359 | 7.0 | 25.0 | 0.00 | 0.00 | 0.00 | 54 | 1006.1 |
| 20260507180015 | 78 | 326 | 8.0 | 22.0 | 0.00 | 0.00 | 0.00 | 53 | 1006.2 |
| 20260507175508 | 78 | 295 | 8.0 | 16.0 | 0.00 | 0.00 | 0.00 | 53 | 1006.1 |
| 20260507175005 | 78 | 19 | 6.0 | 19.0 | 0.00 | 0.00 | 0.00 | 53 | 1006.3 |
| 20260507174539 | 77 | 336 | 8.0 | 19.0 | 0.00 | 0.00 | 0.00 | 53 | 1006.3 |
| 20260507174011 | 77 | 295 | 7.0 | 24.0 | 0.00 | 0.00 | 0.00 | 54 | 1006.3 |
| 20260507173512 | 78 | 39 | 9.0 | 25.0 | 0.00 | 0.00 | 0.00 | 53 | 1006.5 |
| 20260507173025 | 78 | 306 | 12.0 | 25.0 | 0.00 | 0.00 | 0.00 | 54 | 1006.5 |
| 20260507172506 | 78 | 300 | 7.0 | 17.0 | 0.00 | 0.00 | 0.00 | 54 | 1006.5 |
| 20260507172015 | 78 | 359 | 6.0 | 16.0 | 0.00 | 0.00 | 0.00 | 54 | 1006.6 |
| 20260507171539 | 78 | 142 | 4.0 | 17.0 | 0.00 | 0.00 | 0.00 | 54 | 1006.5 |
| 20260507171003 | 78 | 323 | 10.0 | 21.0 | 0.00 | 0.00 | 0.00 | 53 | 1006.5 |
| 20260507170503 | 78 | 337 | 12.0 | 21.0 | 0.00 | 0.00 | 0.00 | 53 | 1006.6 |
| 20260507170012 | 78 | 333 | 10.0 | 21.0 | 0.00 | 0.00 | 0.00 | 54 | 1006.6 |
| 20260507165508 | 78 | 25 | 9.0 | 20.0 | 0.00 | 0.00 | 0.00 | 54 | 1006.8 |
| 20260507165005 | 78 | 296 | 8.0 | 18.0 | 0.00 | 0.00 | 0.00 | 55 | 1006.9 |
| 20260507164514 | 78 | 343 | 5.0 | 20.0 | 0.00 | 0.00 | 0.00 | 56 | 1006.9 |
| 20260507164005 | 78 | 300 | 11.0 | 20.0 | 0.00 | 0.00 | 0.00 | 55 | 1007.1 |
| 20260507163505 | 78 | 303 | 6.0 | 19.0 | 0.00 | 0.00 | 0.00 | 55 | 1007.3 |
| 20260507163023 | 78 | 317 | 9.0 | 19.0 | 0.00 | 0.00 | 0.00 | 55 | 1007.4 |
| 20260507162506 | 79 | 4 | 10.0 | 25.0 | 0.00 | 0.00 | 0.00 | 56 | 1007.3 |
| 20260507162008 | 79 | 322 | 9.0 | 25.0 | 0.00 | 0.00 | 0.00 | 56 | 1007.4 |
| 20260507161526 | 79 | 38 | 8.0 | 25.0 | 0.00 | 0.00 | 0.00 | 56 | 1007.2 |
| 20260507161010 | 79 | 7 | 10.0 | 25.0 | 0.00 | 0.00 | 0.00 | 57 | 1007.4 |
| 20260507160508 | 79 | 322 | 11.0 | 22.0 | 0.00 | 0.00 | 0.00 | 57 | 1007.4 |
| 20260507160030 | 79 | 311 | 13.0 | 23.0 | 0.00 | 0.00 | 0.00 | 57 | 1007.4 |
| 20260507155504 | 79 | 326 | 9.0 | 23.0 | 0.00 | 0.00 | 0.00 | 58 | 1007.5 |
| 20260507155004 | 79 | 19 | 8.0 | 19.0 | 0.00 | 0.00 | 0.00 | 57 | 1007.5 |
| 20260507154518 | 78 | 316 | 8.0 | 26.0 | 0.00 | 0.00 | 0.00 | 58 | 1007.9 |
| 20260507154009 | 78 | 298 | 9.0 | 26.0 | 0.00 | 0.00 | 0.00 | 59 | 1007.9 |
| 20260507153511 | 78 | 18 | 12.0 | 22.0 | 0.00 | 0.00 | 0.00 | 60 | 1007.8 |
| 20260507153025 | 78 | 293 | 11.0 | 28.0 | 0.00 | 0.00 | 0.00 | 62 | 1008.0 |
| 20260507152503 | 77 | 314 | 12.0 | 28.0 | 0.00 | 0.00 | 0.00 | 62 | 1008.0 |
| 20260507152001 | 78 | 14 | 13.0 | 23.0 | 0.00 | 0.00 | 0.00 | 62 | 1007.9 |
| 20260507151508 | 78 | 345 | 10.0 | 24.0 | 0.00 | 0.00 | 0.00 | 63 | 1008.1 |
| 20260507151003 | 77 | 14 | 9.0 | 25.0 | 0.00 | 0.00 | 0.00 | 63 | 1008.2 |
| 20260507150503 | 77 | 359 | 11.0 | 25.0 | 0.00 | 0.00 | 0.00 | 64 | 1008.1 |
| 20260507150008 | 76 | 316 | 9.0 | 21.0 | 0.00 | 0.00 | 0.00 | 65 | 1008.3 |
| 20260507145507 | 76 | 6 | 8.0 | 18.0 | 0.00 | 0.00 | 0.00 | 67 | 1008.4 |
| 20260507145006 | 76 | 345 | 6.0 | 20.0 | 0.00 | 0.00 | 0.00 | 66 | 1008.6 |
| 20260507144506 | 75 | 300 | 5.0 | 20.0 | 0.00 | 0.00 | 0.00 | 68 | 1008.9 |
| 20260507144006 | 75 | 346 | 12.0 | 20.0 | 0.00 | 0.00 | 0.00 | 69 | 1009.0 |
| 20260507143503 | 74 | 340 | 6.0 | 17.0 | 0.00 | 0.00 | 0.00 | 71 | 1009.3 |
| 20260507143008 | 74 | 325 | 8.0 | 17.0 | 0.00 | 0.00 | 0.00 | 71 | 1009.5 |
| 20260507142506 | 73 | 35 | 9.0 | 17.0 | 0.00 | 0.00 | 0.00 | 71 | 1009.6 |
| 20260507142003 | 73 | 290 | 6.0 | 24.0 | 0.00 | 0.00 | 0.00 | 71 | 1009.8 |
| 20260507141508 | 74 | 297 | 7.0 | 24.0 | 0.00 | 0.00 | 0.00 | 71 | 1009.9 |
| 20260507141003 | 74 | 36 | 6.0 | 24.0 | 0.00 | 0.00 | 0.00 | 69 | 1010.1 |
| 20260507140503 | 74 | 16 | 6.0 | 14.0 | 0.00 | 0.00 | 0.00 | 71 | 1010.2 |
| 20260507140017 | 73 | 27 | 6.0 | 16.0 | 0.00 | 0.00 | 0.00 | 71 | 1010.3 |
| 20260507135504 | 73 | 326 | 5.0 | 21.0 | 0.00 | 0.00 | 0.00 | 73 | 1010.4 |
| 20260507135007 | 72 | 320 | 9.0 | 21.0 | 0.00 | 0.00 | 0.00 | 72 | 1010.6 |
| 20260507134508 | 72 | 19 | 10.0 | 20.0 | 0.00 | 0.00 | 0.00 | 73 | 1010.4 |
| 20260507134004 | 72 | 285 | 7.0 | 16.0 | 0.00 | 0.00 | 0.00 | 73 | 1010.5 |
| 20260507133504 | 72 | 19 | 8.0 | 19.0 | 0.00 | 0.00 | 0.00 | 74 | 1010.5 |
| 20260507133010 | 72 | 313 | 5.0 | 19.0 | 0.00 | 0.00 | 0.00 | 74 | 1010.8 |
| 20260507132504 | 72 | 312 | 9.0 | 17.0 | 0.00 | 0.00 | 0.00 | 73 | 1010.7 |
| 20260507132003 | 72 | 287 | 7.0 | 20.0 | 0.00 | 0.00 | 0.00 | 74 | 1010.7 |
| 20260507131508 | 72 | 307 | 9.0 | 20.0 | 0.00 | 0.00 | 0.00 | 73 | 1010.9 |
| 20260507131007 | 72 | 308 | 8.0 | 22.0 | 0.00 | 0.00 | 0.00 | 73 | 1010.9 |
| 20260507130503 | 72 | 39 | 11.0 | 25.0 | 0.00 | 0.00 | 0.00 | 73 | 1010.9 |
| 20260507130009 | 72 | 320 | 8.0 | 25.0 | 0.00 | 0.00 | 0.00 | 74 | 1011.0 |
| 20260507125506 | 72 | 27 | 12.0 | 19.0 | 0.00 | 0.00 | 0.00 | 74 | 1010.8 |
| 20260507125004 | 72 | 326 | 10.0 | 20.0 | 0.00 | 0.00 | 0.00 | 74 | 1010.8 |
| 20260507124511 | 72 | 303 | 9.0 | 22.0 | 0.00 | 0.00 | 0.00 | 74 | 1010.8 |
| 20260507124003 | 72 | 359 | 9.0 | 22.0 | 0.00 | 0.00 | 0.00 | 74 | 1010.8 |
| 20260507123505 | 71 | 347 | 11.0 | 19.0 | 0.00 | 0.00 | 0.00 | 75 | 1010.9 |
| 20260507123006 | 71 | 39 | 10.0 | 22.0 | 0.00 | 0.00 | 0.00 | 75 | 1011.1 |
| 20260507122503 | 72 | 18 | 7.0 | 22.0 | 0.00 | 0.00 | 0.00 | 74 | 1011.2 |
| 20260507122004 | 72 | 306 | 8.0 | 22.0 | 0.00 | 0.00 | 0.00 | 74 | 1011.2 |
| 20260507121509 | 72 | 333 | 9.0 | 26.0 | 0.00 | 0.00 | 0.00 | 73 | 1010.8 |
| 20260507121004 | 72 | 300 | 10.0 | 26.0 | 0.00 | 0.00 | 0.00 | 73 | 1010.9 |
| 20260507120504 | 72 | 8 | 11.0 | 27.0 | 0.00 | 0.00 | 0.00 | 73 | 1011.0 |
| 20260507120025 | 72 | 352 | 11.0 | 27.0 | 0.00 | 0.00 | 0.00 | 73 | 1011.2 |
| 20260507115504 | 72 | 24 | 12.0 | 24.0 | 0.00 | 0.00 | 0.00 | 72 | 1011.2 |
| 20260507115003 | 72 | 297 | 14.0 | 24.0 | 0.00 | 0.00 | 0.00 | 73 | 1010.9 |
| 20260507114512 | 72 | 307 | 13.0 | 23.0 | 0.00 | 0.00 | 0.00 | 73 | 1010.9 |
| 20260507114004 | 72 | 305 | 12.0 | 23.0 | 0.00 | 0.00 | 0.00 | 72 | 1011.1 |
| 20260507113506 | 72 | 325 | 13.0 | 28.0 | 0.00 | 0.00 | 0.00 | 71 | 1011.0 |
| 20260507113017 | 73 | 309 | 14.0 | 28.0 | 0.00 | 0.00 | 0.00 | 71 | 1010.9 |
| 20260507112506 | 72 | 6 | 14.0 | 23.0 | 0.00 | 0.00 | 0.00 | 71 | 1010.9 |
| 20260507112004 | 72 | 323 | 9.0 | 20.0 | 0.00 | 0.00 | 0.00 | 72 | 1011.1 |
| 20260507111513 | 72 | 307 | 11.0 | 17.0 | 0.00 | 0.00 | 0.00 | 72 | 1011.0 |
| 20260507111004 | 72 | 296 | 7.0 | 25.0 | 0.00 | 0.00 | 0.00 | 72 | 1011.0 |
| 20260507110503 | 72 | 323 | 13.0 | 25.0 | 0.00 | 0.00 | 0.00 | 71 | 1011.0 |
| 20260507110010 | 72 | 304 | 8.0 | 17.0 | 0.00 | 0.00 | 0.00 | 70 | 1011.3 |
| 20260507105504 | 72 | 314 | 5.0 | 23.0 | 0.00 | 0.00 | 0.00 | 70 | 1011.4 |
| 20260507105003 | 73 | 353 | 8.0 | 23.0 | 0.00 | 0.00 | 0.00 | 70 | 1011.2 |
| 20260507104518 | 72 | 347 | 7.0 | 19.0 | 0.00 | 0.00 | 0.00 | 70 | 1011.1 |
| 20260507104006 | 72 | 347 | 10.0 | 19.0 | 0.00 | 0.00 | 0.00 | 71 | 1011.0 |
| 20260507103506 | 72 | 339 | 11.0 | 23.0 | 0.00 | 0.00 | 0.00 | 71 | 1011.0 |
| 20260507103011 | 72 | 321 | 9.0 | 23.0 | 0.00 | 0.00 | 0.00 | 71 | 1010.9 |
| 20260507102504 | 72 | 344 | 12.0 | 21.0 | 0.00 | 0.00 | 0.00 | 71 | 1010.9 |
| 20260507102006 | 72 | 349 | 9.0 | 21.0 | 0.00 | 0.00 | 0.00 | 72 | 1010.9 |
| 20260507101520 | 72 | 339 | 9.0 | 19.0 | 0.00 | 0.00 | 0.00 | 72 | 1010.9 |
| 20260507101007 | 72 | 352 | 11.0 | 20.0 | 0.00 | 0.00 | 0.00 | 73 | 1011.0 |
| 20260507100503 | 72 | 19 | 8.0 | 20.0 | 0.00 | 0.00 | 0.00 | 73 | 1010.8 |
| 20260507100028 | 72 | 27 | 11.0 | 19.0 | 0.00 | 0.00 | 0.00 | 74 | 1010.8 |
| 20260507095506 | 71 | 308 | 12.0 | 20.0 | 0.00 | 0.00 | 0.00 | 75 | 1010.7 |
| 20260507095004 | 71 | 335 | 8.0 | 24.0 | 0.00 | 0.00 | 0.00 | 76 | 1010.9 |
| 20260507094510 | 71 | 22 | 12.0 | 24.0 | 0.00 | 0.00 | 0.00 | 76 | 1010.9 |
| 20260507094003 | 71 | 13 | 9.0 | 23.0 | 0.00 | 0.00 | 0.00 | 76 | 1010.8 |
| 20260507093504 | 71 | 330 | 12.0 | 23.0 | 0.00 | 0.00 | 0.00 | 76 | 1011.0 |
| 20260507093014 | 71 | 14 | 8.0 | 23.0 | 0.00 | 0.00 | 0.00 | 77 | 1011.0 |
| 20260507092509 | 71 | 27 | 6.0 | 18.0 | 0.00 | 0.00 | 0.00 | 76 | 1011.0 |
| 20260507092008 | 71 | 315 | 6.0 | 14.0 | 0.00 | 0.00 | 0.00 | 76 | 1011.0 |
| 20260507091513 | 71 | 10 | 6.0 | 19.0 | 0.00 | 0.00 | 0.00 | 76 | 1011.2 |
| 20260507091004 | 71 | 322 | 8.0 | 20.0 | 0.00 | 0.00 | 0.00 | 76 | 1011.3 |
| 20260507090510 | 71 | 344 | 9.0 | 20.0 | 0.00 | 0.00 | 0.00 | 76 | 1011.1 |
| 20260507090015 | 71 | 4 | 8.0 | 19.0 | 0.00 | 0.00 | 0.00 | 77 | 1011.3 |
| 20260507085504 | 71 | 307 | 6.0 | 16.0 | 0.00 | 0.00 | 0.00 | 76 | 1011.1 |
| 20260507085005 | 71 | 345 | 9.0 | 16.0 | 0.00 | 0.00 | 0.00 | 76 | 1011.3 |
| 20260507084530 | 71 | 359 | 5.0 | 14.0 | 0.00 | 0.00 | 0.00 | 76 | 1011.4 |
| 20260507084004 | 71 | 352 | 7.0 | 14.0 | 0.00 | 0.00 | 0.00 | 75 | 1011.4 |
| 20260507083506 | 71 | 35 | 7.0 | 16.0 | 0.00 | 0.00 | 0.00 | 75 | 1011.6 |
| 20260507083021 | 71 | 342 | 9.0 | 19.0 | 0.00 | 0.00 | 0.00 | 75 | 1011.5 |
| 20260507082504 | 71 | 67 | 6.0 | 19.0 | 0.00 | 0.00 | 0.00 | 75 | 1011.8 |
| 20260507082003 | 72 | 21 | 7.0 | 19.0 | 0.00 | 0.00 | 0.00 | 74 | 1011.8 |
| 20260507081514 | 72 | 15 | 7.0 | 17.0 | 0.00 | 0.00 | 0.00 | 74 | 1011.9 |
| 20260507081010 | 72 | 15 | 6.0 | 17.0 | 0.00 | 0.00 | 0.00 | 74 | 1011.9 |
| 20260507080505 | 72 | 316 | 7.0 | 23.0 | 0.00 | 0.00 | 0.00 | 74 | 1011.9 |
| 20260507080016 | 72 | 352 | 7.0 | 23.0 | 0.00 | 0.00 | 0.00 | 74 | 1011.8 |
| 20260507075503 | 72 | 347 | 4.0 | 14.0 | 0.00 | 0.00 | 0.00 | 74 | 1011.9 |
| 20260507075008 | 72 | 323 | 6.0 | 18.0 | 0.00 | 0.00 | 0.00 | 74 | 1011.9 |
| 20260507074516 | 72 | 313 | 6.0 | 18.0 | 0.00 | 0.00 | 0.00 | 75 | 1012.1 |
| 20260507074005 | 72 | 330 | 5.0 | 18.0 | 0.00 | 0.00 | 0.00 | 74 | 1012.0 |
| 20260507073505 | 72 | 326 | 6.0 | 18.0 | 0.00 | 0.00 | 0.00 | 74 | 1011.9 |
| 20260507073014 | 72 | 4 | 8.0 | 18.0 | 0.00 | 0.00 | 0.00 | 74 | 1011.9 |
| 20260507072509 | 72 | 356 | 9.0 | 21.0 | 0.00 | 0.00 | 0.00 | 74 | 1011.8 |
| 20260507072003 | 72 | 309 | 9.0 | 21.0 | 0.00 | 0.00 | 0.00 | 74 | 1011.9 |
| 20260507071518 | 71 | 308 | 10.0 | 17.0 | 0.00 | 0.00 | 0.00 | 74 | 1011.9 |
| 20260507071008 | 71 | 319 | 10.0 | 17.0 | 0.00 | 0.00 | 0.00 | 74 | 1011.8 |
| 20260507070507 | 71 | 324 | 9.0 | 17.0 | 0.00 | 0.00 | 0.00 | 74 | 1011.8 |
| 20260507070021 | 71 | 32 | 9.0 | 17.0 | 0.00 | 0.00 | 0.00 | 73 | 1011.9 |
| 20260507065505 | 72 | 320 | 10.0 | 17.0 | 0.00 | 0.00 | 0.00 | 73 | 1011.9 |
| 20260507065006 | 72 | 324 | 10.0 | 17.0 | 0.00 | 0.00 | 0.00 | 73 | 1012.1 |